Regional Weather Roundup
Issued by NWS

Home | Current Version | Previous Version | Text Only | Print | Product List | Glossary Off
Versions: 1 2 3 4 5 6 7 8 9 10 11 12 13 14 15 16 17 18 19 20 21 22 23 24 25 26 27 28 29 30 31 32 33 34 35 36 37 38 39 40 41 42 43 44 45 46 47 48 49 50

000
ASUS43 KDTX 041910
RWRMI
MICHIGAN HOURLY REGIONAL WEATHER ROUNDUP
NATIONAL WEATHER SERVICE DETROIT/PONTIAC MI
200 PM EST SUN DEC 04 2016

NOTE: "FAIR" INDICATES FEW OR NO CLOUDS BELOW 12,000 FEET WITH NO
SIGNIFICANT WEATHER AND/OR OBSTRUCTION TO VISIBILITY.

MIZ047>049-052>055-059>063-066>070-074>076-081>083-042000-
SOUTHEAST LOWER MICHIGAN

CITY           SKY/WX    TMP DP  RH WIND       PRES   REMARKS
ADRIAN         CLOUDY    37  29  72 SE10      30.06F WCI  30
ALMA           CLOUDY    37  28  70 SE6       30.06F WCI  32
ANN ARBOR      CLOUDY    38  27  64 E10       30.05F WCI  31
BAD AXE        CLOUDY    36  29  75 S5        30.10F WCI  32
CARO           CLOUDY    37  28  72 E5        30.08F WCI  33
DETROIT CITY   CLOUDY    39  29  67 S7        30.10F WCI  34
DETROIT        CLOUDY    38  28  67 SE7       30.08F WCI  33
FLINT          CLOUDY    37  27  67 SE6       30.07F WCI  32
GROSSE ILE     PTSUNNY   38  29  67 SE7       30.07F WCI  33
HILLSDALE      CLOUDY    34  28  80 SE6       30.03S WCI  29
HOWELL         CLOUDY    37  26  66 SE9       30.05F WCI  30

CITY           SKY/WX    TMP DP  RH WIND       PRES   REMARKS
JACKSON        CLOUDY    37  26  64 SE7       30.05S WCI  32
LAMBERTVILLE   CLOUDY    39  29  66 SE6       30.06F WCI  35
LANSING        CLOUDY    36  25  64 SE9       30.06F WCI  29
LAPEER         NOT AVBL
MASON          CLOUDY    36  28  74 E5        30.05F WCI  32
MONROE         CLOUDY    38  30  71 SE6       30.07F WCI  34
MT. CLEMENS    CLOUDY    39  29  68 SE8       30.08F WCI  33
PONTIAC        CLOUDY    36  26  67 SE6       30.06F WCI  31
PORT HOPE        N/A     37  31  78 CALM      30.09F
PORT HURON     CLOUDY    37  28  70 S7        30.11F WCI  32
TRI CITIES     CLOUDY    37  28  70 SE6       30.08F WCI  32
MIDLAND        FAIR      37  26  62 SE5       30.07F WCI  34
TROY           CLOUDY    38  26  61 SE7       30.10F WCI  33
SAGINAW HB     CLOUDY    37  27  65 E7        30.07F WCI  32
$$
MIZ043>046-050>051-056>058-064>065-071>073-077>080-042000-
SOUTHWEST LOWER MICHIGAN

CITY           SKY/WX    TMP DP  RH WIND       PRES   REMARKS
BATTLE CREEK   LGT SNOW  36  30  79 S8        30.05S WCI  30
BENTON HARBOR  SNOW      34  31  88 E7        30.01F VSB 1/2 WCI  28
BIG RAPIDS     CLOUDY    37  25  63 SE7       30.01F WCI  31
COLDWATER      CLOUDY    37  28  68 SE5       30.04S WCI  33
FREMONT        CLOUDY    36  23  59 SE8       30.01F WCI  29
HOLLAND        SNOW      33  31  92 E8        30.02F VSB 1/2 WCI  26
GRAND RAPIDS   CLOUDY    36  26  67 SE10      30.04F WCI  28
IONIA          CLOUDY    36  26  68 E8        30.04F WCI  29
KALAMAZOO      LGT SNOW  36  27  69 SE8       30.04F VSB 1   WCI  30
LUDINGTON      LGT SNOW  32  32 100 SE6       30.01F VSB 1   WCI  26
MARSHALL       CLOUDY    37  28  72 SE5       30.05S WCI  33
MOUNT PLEASANT CLOUDY    36  27  68 SE7       30.05F WCI  31
MUSKEGON       FLURRIES  37  27  67 SE9       30.03F WCI  30
SOUTH HAVEN    LGT SNOW  34  32  94 SE7       30.02F VSB 3/4 WCI  28
$$
MIZ016>042-042000-
NORTHERN LOWER MICHIGAN

CITY           SKY/WX    TMP DP  RH WIND       PRES   REMARKS
ALPENA         CLOUDY    40  26  57 S12       30.08F WCI  33
BEAVER ISLAND  LGT SNOW  34  32  94 SE8       30.02F WCI  27
BELLAIRE       CLOUDY    35  30  83 SE7       30.05F WCI  29
CADILLAC       LGT SNOW  31  29  91 SE9       30.00F VSB 1   WCI  23
CHARLEVOIX     FLURRIES  34  31  88 SE8       30.06F WCI  27
FRANKFORT      LGT SNOW  33  32  96 SE7       30.02F WCI  27
GAYLORD        CLOUDY    33  25  72 S12       30.02F WCI  24
GRAYLING       FLURRIES  34  29  83 SE8       30.04F WCI  27
HARBOR SPRINGS CLOUDY    35  27  73 SE5       30.04F WCI  31
HOUGHTON LAKE  LGT SNOW  33  26  75 SE6       30.04F WCI  28
MANISTEE       LGT SNOW  32  31  96 SE6       30.02F FOG     WCI  26
OSCODA         CLOUDY    38  28  66 S6        30.08F WCI  34
PELLSTON       CLOUDY    36  26  67 S8        30.05F WCI  30
ROGERS CITY    CLOUDY    39  29  67 SE6       30.07F WCI  35
TRAVERSE CITY  LGT SNOW  35  30  82 S6        30.03F VSB 1   WCI  30
$$
MIZ007>008-015-042000-
EASTERN UPPER MICHIGAN

CITY           SKY/WX    TMP DP  RH WIND       PRES   REMARKS
KINROSS        FLURRIES  32  31  96 SE12      30.05F WCI  23
MACKINAC ISLAN CLOUDY    36  30  79 SE5       30.05F WCI  32
NEWBERRY       CLOUDY    34  33  96 SE7       30.01F WCI  28
S. S. MARIE    LGT SNOW  33  30  88 E9        30.05F FOG     WCI  25
MUNISING         N/A     32  30  92 S6        29.99F WCI  26
$$
MIZ004>006-011>014-085-042000-
CENTRAL UPPER MICHIGAN

CITY           SKY/WX    TMP DP  RH WIND       PRES   REMARKS
MANISTIQUE     LGT SNOW  33  31  94 CALM      30.00F
ESCANABA       LGT SNOW  30  28  93 CALM      29.99F VSB 1
MENOMINEE      LGT SNOW  32  30  92 S5        30.00F FOG     WCI  27
SAWYER-GWINN   LGT SNOW  28  25  86 S13G18    29.96F WCI  18
$$
MIZ001>003-009>011-084-042000-
WESTERN UPPER MICHIGAN

CITY           SKY/WX    TMP DP  RH WIND       PRES   REMARKS
IRON MOUNTAIN  LGT SNOW  29  25  85 SE6       29.93F VSB 1   WCI  23
HOUGHTON       LGT SNOW  29  26  89 SE7       29.91F VSB 3/4 WCI  22
COPPER HARBOR    N/A     33  27  78 VRB5      29.94F WCI  29
IRONWOOD       LGT SNOW  31  28  89 SE9G16    29.85F FOG     WCI  23
$$

ABBREVIATIONS USED IN REMARKS
   TC - TEMPERATURE IN CELSIUS
  WCI - WIND CHILL INDEX
   HX - HEAT INDEX
  VSB - VISIBILITY





USA.gov is the U.S. government's official web portal to all federal, state and local government web resources and services.